Regional Weather Roundup
Issued by NWS

Home | Current Version | Previous Version | Text Only | Print | Product List | Glossary Off
Versions: 1 2 3 4 5 6 7 8 9 10 11 12 13 14 15 16 17 18 19 20 21 22 23 24 25 26 27 28 29 30 31 32 33 34 35 36 37 38 39 40 41 42 43 44 45 46 47 48 49 50

000
ASUS43 KMPX 280910
RWRMN
WEATHER ROUNDUP FOR MINNESOTA
NATIONAL WEATHER SERVICE TWIN CITIES/CHANHASSEN MN
400 AM CDT THU MAY 28 2015


NOTE: "FAIR" INDICATES FEW OR NO CLOUDS BELOW 12,000 FEET WITH NO
SIGNIFICANT WEATHER AND/OR OBSTRUCTIONS TO VISIBILITY. N/A MEANS
CURRENT SKY AND/OR WEATHER CONDITIONS ARE NOT AVAILABLE.

MNZ060>063-068>070-281000-
   Twin Cities Metro

CITY           SKY/WX    TMP DP  RH WIND       PRES   REMARKS
TWIN CITIES    PTCLDY    63  55  75 SE3       30.03S
ST PAUL        CLEAR     60  58  92 E5        30.03F
CRYSTAL        CLEAR     58  56  93 CALM      30.01F
BLAINE         CLEAR     61  57  88 SE3       30.02F
LAKEVILLE      PTCLDY    63  54  72 CALM      30.04S
EDEN PRAIRIE   CLEAR     64  54  69 S7        30.02S
SOUTH ST PAUL  CLEAR     60  58  92 CALM      30.03S
LAKE ELMO      FAIR      55  55 100 CALM      30.04F
$$
MNZ001>005-007-008-013>017-022>024-027-028-281000-
   Northwest Minnesota

CITY           SKY/WX    TMP DP  RH WIND       PRES   REMARKS
BEMIDJI        PTCLDY    50  47  91 E5        29.99F
HALLOCK        CLOUDY    55  48  76 N5        29.95F
ROSEAU         CLOUDY    57  48  72 E6        29.98F
WARROAD        PTCLDY    55  52  88 E6        30.00F
THIEF RVR FALL CLOUDY    63  46  55 E12       29.95F
CROOKSTON      CLOUDY    63  54  72 E3        29.93F
FOSSTON        CLOUDY    61  50  67 E7        29.96F
DETROIT LAKES  CLOUDY    61  54  77 S5        29.98F
MOORHEAD       LGT RAIN  66  54  63 SW7       29.96S
PARK RAPIDS    CLOUDY    59  51  75 SE5       29.99F
MAHNOMEN       FAIR      63  52  67 SE9       29.95F
$$
MNZ006-009>011-018-025>026-281000-
   North Central Minnesota

CITY           SKY/WX    TMP DP  RH WIND       PRES   REMARKS
BAUDETTE       PTCLDY    52  46  80 E8        30.00F
FLAG ISLAND    PTCLDY    57  48  72 SE6       30.00F
INTL FALLS     CLEAR     50  45  83 E6        30.03S
WASKISH        PTCLDY    52  46  82 CALM      30.00F
BIG FORK       CLEAR     55  48  76 SE6       30.03F
LONGVILLE      PTCLDY    50  50 100 CALM      30.01S
GRAND RAPIDS   CLEAR     55  46  71 SE6       30.05S
CRANE LAKE     CLEAR     45  43  93 CALM      30.08S
ORR            CLEAR     52  46  82 CALM      30.03S
COOK           CLEAR     54  45  71 SE6       30.06S
WALKER         FAIR      51  50  97 CALM      30.00S
$$
MNZ012-019>021-037-281000-
   Northeast Minnesota

CITY           SKY/WX    TMP DP  RH WIND       PRES   REMARKS
DULUTH         CLEAR     53  42  66 E12       30.08F
HIBBING        CLEAR     46  44  93 CALM      30.06S FOG
EVELETH        CLEAR     52  43  71 E5        30.09S
DULUTH HARBOR  CLEAR     48  45  87 NE21      30.11R
TWO HARBORS    CLEAR     54  45  71 NE8       30.09S
SILVER BAY     CLEAR     48  39  71 NE10      30.12R
GRAND MARAIS     N/A     43  39  86 NE7       30.15S
G MARAIS ARPRT CLEAR     43  36  75 NE8       30.14S
$$
MNZ029>031-032-039>041-046>048-054>057-064-281000-
   West Central Minnesota

CITY           SKY/WX    TMP DP  RH WIND       PRES   REMARKS
FERGUS FALLS   CLOUDY    66  54  63 SE8       29.96F
WHEATON        CLOUDY    64  52  63 SE9       29.96F
MORRIS         MOCLDY    63  54  72 SE8       29.96F
ALEXANDRIA     CLOUDY    67  50  54 SE9       30.00F
ELBOW LAKE     FAIR      67  52  59 SE8       29.96F
WADENA         CLOUDY    61  54  77 SE3       29.99F
GLENWOOD       CLOUDY    63  52  67 SE7       30.00F
APPLETON       CLOUDY    66  52  59 S6        29.97F
BENSON         MOCLDY    64  52  63 S6        29.98F
ORTONVILLE     CLOUDY    64  54  68 SE3       29.96F
MADISON        CLOUDY    63  52  67 S8        29.98F
WILLMAR        FAIR      64  54  68 SE3       30.01F
$$
MNZ033>034-036-042>043-049>051-058-059-281000-
   Central Minnesota

CITY           SKY/WX    TMP DP  RH WIND       PRES   REMARKS
ST CLOUD       CLEAR     53  52  96 E3        30.01S
SAUK CENTRE    FAIR      60  54  80 CALM      29.99F
PAYNESVILLE    PTCLDY    58  53  81 SE6       30.01F
AITKIN         CLEAR     55  48  76 E3        30.02R
PINE RIVER     PTCLDY    52  52 100 CALM      30.04F
BRAINERD       PTCLDY    55  52  89 CALM      30.02S
STAPLES        CLOUDY    57  52  82 SE5       30.00F
LONG PRAIRIE   MOCLDY    63  52  67 CALM      30.00F HAZE
LITTLE FALLS   PTCLDY    52  50  93 CALM      30.01F
LITCHFIELD     MOCLDY    64  57  77 CALM      30.02S
BUFFALO        CLEAR     60  53  78 CALM      30.02F
MAPLE LAKE       N/A     57  56  98 CALM      30.02F FOG
$$
MNZ037-044-045-052-053-281000-
   East Central Minnesota

CITY           SKY/WX    TMP DP  RH WIND       PRES   REMARKS
PRINCETON      FOG       55  54  94 CALM      30.02S VSB 1/2
MORA           CLEAR     50  50 100 CALM      30.05S
CAMBRIDGE      CLEAR     63  52  67 S3        30.01S
RUSH CITY      PTCLDY    52  51  97 CALM      30.03S
MOOSE LAKE     CLEAR     50  45  81 NE6       30.05S
HINCKLEY       FAIR      54  50  87 NE5       30.05R
CLOQUET        CLEAR     54  43  66 E8        30.07F
MCGREGOR       CLEAR     52  46  82 E7        30.05S
$$
MNZ071>073-080-081-089-090-097-098-281000-
   Southwest Minnesota

CITY           SKY/WX    TMP DP  RH WIND       PRES   REMARKS
MONTEVIDEO     CLOUDY    66  52  59 SW7       30.00F
GRANITE FALLS  MOCLDY    60  52  74 CALM      30.01F
CANBY          MOCLDY    68  48  49 SW7       30.00S
MARSHALL       MOCLDY    63  48  59 SW13      30.01R
REDWOOD FALLS  PTCLDY    63  52  67 S9        30.01S
OLIVIA         MOCLDY    64  50  59 S6        30.01S
PIPESTONE      PTCLDY    63  50  63 S8        30.04S
WINDOM         CLEAR     63  52  67 CALM      30.05S
WORTHINGTON    CLEAR     63  46  55 S10       30.06S
JACKSON        CLEAR     59  52  77 S7        30.07S
TRACY          CLEAR     66  51  57 SW13      30.03R
SLAYTON        CLEAR     63  49  60 S12       30.05S
$$
MNZ065>067-074>077-082>085-091>093-281000-
   South Central Minnesota

CITY           SKY/WX    TMP DP  RH WIND       PRES   REMARKS
MANKATO        CLEAR     63  54  72 S9        30.04F
NEW ULM        PTCLDY    61  54  77 S7        30.03S
ST JAMES       CLEAR     63  55  77 S7        30.05S
FAIRMONT       CLEAR     61  52  72 S7        30.06R
GLENCOE        PTCLDY    63  56  78 S3        30.01F
FARIBAULT      PTCLDY    61  55  82 S3        30.06S
OWATONNA       PTCLDY    63  54  72 S7        30.06F
WASECA         CLEAR     59  52  77 S5        30.07F
ALBERT LEA     CLEAR     64  55  72 S5        30.08S
$$
MNZ078>079-086>088-094>096-281000-
   Southeast Minnesota

CITY           SKY/WX    TMP DP  RH WIND       PRES   REMARKS
ROCHESTER      CLEAR     60  55  83 S10       30.09S
RED WING       CLEAR     55  55 100 CALM      30.04F
STANTON        PTCLDY    62  54  75 CALM      30.03F
DODGE CENTER   CLEAR     64  55  72 S9        30.08S
WINONA         CLEAR     59  59 100 CALM      30.08R
AUSTIN         CLEAR     61  55  82 S3        30.09S
PRESTON        CLEAR     60  55  85 SW6       30.11R
$$
ABBREVIATIONS USED IN REMARKS
   TC - TEMPERATURES IN CELSIUS
  WCI - WIND CHILL INDEX
   HX - HEAT INDEX
  VSB - VISIBILITY
$$



USA.gov is the U.S. government's official web portal to all federal, state and local government web resources and services.